BREEZE-M DEB, 38565

Orbit data source: Space-Track

BREEZE-M DEB, 38565 is space debris in HEO originally from a launch on Fri, 14 Mar 2008 UTC launched from the Tyuratam Missile And Space Complex (TTMTR). Debris objects in space refer to the collection of defunct objects orbiting the Earth. Examples of debris include non-operational satellites, rocket bodies, and fragments generated from explosions, collisions, or faulty payload assembly.

Loading next visibility...
Identifier
38565, 2008-011L
Orbit
HEO
Country
Flag of CISCIS
Related business
Manufacturer
Unknown
Mission
Spacecraft
Bus & Motor
Unknown
Mass
Unknown
Launch date (UTC)
2008-03-14 (18 years ago)
Launch vehicle
Unknown
Launch site
Tyuratam Missile And Space Complex (TTMTR)
Object type
Payload
Rocket body
Debris
Shape & HBR
Unknown shape, 0.5 m
Radar Cross Section
Medium (>0.1 m² and <1 m²)

Expand to show TLE details & history
Last TLE update: 2 days ago

TLE from 2 days ago
0 BREEZE-M DEB
1 38565U 08011L   26171.22885343 -.00000084  00000-0  15049-3 0  9994
2 38565  49.1895 239.4886 6469494 331.7083   4.8930  3.10972377183995
Epoch: 2026-06-20T05:29Z
TLE epoch observation values (Epoch: 2026-06-20T05:29:32.936Z)
Latitude
-0.00024°
Longitude
-111.33973°
Altitude
970.891 km
Speed
9.401 km/s
True Right ascension
15h 57m 58s
True Declination
0° 00' 01"
Sunlit
Object was in full shadow at epoch
Visualization orbit readout
Latitude
Unknown
Longitude
Unknown
Altitude
Unknown
Speed
Unknown
Apparent Right ascension
Unknown
Apparent Declination
Unknown
Sunlit
N/A
Visualization observer readout
Local Sidereal Time
03:26:37
Azimuth
Unknown
Elevation
Unknown
Doppler factor
Unknown
Orbital elements
Apogee altitude
26,276.881 km
Perigee altitude
622.001 km
Semi-major axis
19,827.578 km
Eccentricity
0.64695
Inclination
49.1895°
RAAN
239.4886°
Arg. of periapsis
331.7083°
True anomaly
28.93529°
Mean anomaly
4.893°
Eccentric anomaly
13.62458°
Mean motion
0.77739 °/min
Orbital period
463.09 mins
BSTAR
0.00015049
Loading maneuver chart data...
Computing Atmospheric mass density...
Loading historical data...
Loading historical data...
Loading historical data...
Loading historical data...
Loading historical data...
Loading historical data...
Loading historical data...

Documentation

Showing up to 5 results
|